WA8SIE Weather Reports


time (UTC)temp
C
wind
direction
speed
KPH
gust
KPH
rain 1hr
cm
rain 24hr
cm
rain mn
cm
humidity
%
barometer
mb
20260509005011 16 196 0.0 0.0 0.00 0.00 0.00 50 1005.9
20260509004512 17 196 0.0 0.0 0.00 0.00 0.00 50 1005.9
20260509003511 17 196 0.0 0.0 0.00 0.00 0.00 46 1005.9
20260509003012 17 196 0.0 0.0 0.00 0.00 0.00 45 1005.9
20260509002511 17 196 0.0 0.0 0.00 0.00 0.00 45 1005.9
20260509002011 17 196 0.0 0.0 0.00 0.00 0.00 44 1005.9
20260509001511 18 196 0.0 0.0 0.00 0.00 0.00 41 1005.9
20260509001011 18 196 0.0 0.0 0.00 0.00 0.00 39 1004.9
20260509000511 18 196 0.0 0.0 0.00 0.00 0.00 39 1004.9
20260509000011 18 196 0.0 0.0 0.00 0.00 0.00 36 1004.9
20260508235511 19 196 0.0 0.0 0.00 0.00 0.00 35 1005.9
20260508235011 19 196 0.0 0.0 0.00 0.00 0.00 34 1005.9
20260508234011 20 224 4.8 0.0 0.00 0.00 0.00 34 1006.0
20260508233511 20 198 0.0 0.0 0.00 0.00 0.00 33 1006.0
20260508232011 20 191 0.0 0.0 0.00 0.00 0.00 31 1006.1
20260508231511 20 191 11.3 0.0 0.00 0.00 0.00 30 1006.1
20260508230511 20 214 1.6 0.0 0.00 0.00 0.00 29 1005.1
20260508230011 20 207 0.0 0.0 0.00 0.00 0.00 29 1005.1
20260508225512 20 202 0.0 0.0 0.00 0.00 0.00 30 1005.0
20260508225012 20 195 6.4 0.0 0.00 0.00 0.00 31 1005.0
20260508224511 20 185 0.0 0.0 0.00 0.00 0.00 30 1005.0
20260508224011 20 195 0.0 0.0 0.00 0.00 0.00 31 1005.0
20260508223511 21 184 3.2 0.0 0.00 0.00 0.00 30 1005.0
20260508223013 21 196 3.2 0.0 0.00 0.00 0.00 30 1005.0
20260508222511 21 181 1.6 0.0 0.00 0.00 0.00 29 1005.1
20260508222012 21 245 1.6 0.0 0.00 0.00 0.00 30 1005.1
20260508221511 21 189 3.2 0.0 0.00 0.00 0.00 33 1005.1
20260508221011 21 215 4.8 0.0 0.00 0.00 0.00 32 1005.1
20260508220511 21 181 0.0 0.0 0.00 0.00 0.00 30 1005.1
20260508215511 21 206 11.3 0.0 0.00 0.00 0.00 29 1005.2
20260508215011 21 210 0.0 0.0 0.00 0.00 0.00 31 1005.2
20260508214512 21 195 4.8 0.0 0.00 0.00 0.00 31 1005.2
20260508214011 21 158 4.8 0.0 0.00 0.00 0.00 31 1005.2
20260508213511 21 238 4.8 0.0 0.00 0.00 0.00 31 1005.2
20260508213011 21 177 0.0 0.0 0.00 0.00 0.00 31 1005.2
20260508212510 21 193 6.4 0.0 0.00 0.00 0.00 31 1005.2
20260508212012 21 182 6.4 0.0 0.00 0.00 0.00 31 1005.2
20260508211012 21 186 8.0 0.0 0.00 0.00 0.00 30 1006.2
20260508210511 21 186 8.0 0.0 0.00 0.00 0.00 30 1006.2
20260508205010 21 184 1.6 0.0 0.00 0.00 0.00 30 1006.3
20260508204510 21 195 1.6 0.0 0.00 0.00 0.00 31 1006.3
20260508203510 21 83 9.7 0.0 0.00 0.00 0.00 31 1006.6
20260508203011 21 199 4.8 0.0 0.00 0.00 0.00 30 1006.6
20260508202511 21 207 0.0 0.0 0.00 0.00 0.00 31 1006.8
20260508202010 21 207 0.0 0.0 0.00 0.00 0.00 32 1006.8
20260508201510 21 204 9.7 0.0 0.00 0.00 0.00 30 1006.8
20260508201011 21 209 8.0 0.0 0.00 0.00 0.00 32 1007.1
20260508200010 21 181 0.0 0.0 0.00 0.00 0.00 30 1007.1
20260508195510 21 300 4.8 0.0 0.00 0.00 0.00 32 1007.4
20260508192512 21 193 1.6 0.0 0.00 0.00 0.00 33 1008.1
20260508192010 21 197 3.2 0.0 0.00 0.00 0.00 31 1008.1
20260508191512 21 216 4.8 0.0 0.00 0.00 0.00 32 1008.1
20260508191010 21 210 4.8 0.0 0.00 0.00 0.00 34 1008.3
20260508190510 20 209 4.8 0.0 0.00 0.00 0.00 32 1008.3
20260508190011 20 119 6.4 0.0 0.00 0.00 0.00 32 1008.3
20260508185011 20 205 1.6 0.0 0.00 0.00 0.00 33 1008.7
20260508184511 21 191 4.8 0.0 0.00 0.00 0.00 34 1008.7
20260508184011 20 156 0.0 0.0 0.00 0.00 0.00 34 1008.9
20260508183511 20 233 0.0 0.0 0.00 0.00 0.00 35 1008.9
20260508183012 21 215 0.0 0.0 0.00 0.00 0.00 33 1008.9
20260508182511 21 208 6.4 0.0 0.00 0.00 0.00 32 1009.1
20260508182011 20 138 1.6 0.0 0.00 0.00 0.00 34 1009.1
20260508181511 20 308 0.0 0.0 0.00 0.00 0.00 35 1009.1
20260508181011 20 212 0.0 0.0 0.00 0.00 0.00 36 1009.4
20260508180511 20 174 0.0 0.0 0.00 0.00 0.00 35 1009.4
20260508180011 19 312 4.8 0.0 0.00 0.00 0.00 36 1009.4
20260508175511 20 203 8.0 0.0 0.00 0.00 0.00 38 1009.6
20260508175011 20 186 0.0 0.0 0.00 0.00 0.00 35 1009.6
20260508174511 20 165 0.0 0.0 0.00 0.00 0.00 34 1009.6
20260508174011 20 221 0.0 0.0 0.00 0.00 0.00 36 1009.8
20260508173511 20 231 1.6 0.0 0.00 0.00 0.00 39 1009.8
20260508173011 19 174 3.2 0.0 0.00 0.00 0.00 37 1009.8
20260508172511 20 158 3.2 0.0 0.00 0.00 0.00 36 1010.0
20260508172011 20 238 6.4 0.0 0.00 0.00 0.00 37 1010.0
20260508171511 20 223 6.4 0.0 0.00 0.00 0.00 36 1010.0
20260508170511 19 180 0.0 0.0 0.00 0.00 0.00 36 1010.3
20260508170011 18 214 1.6 0.0 0.00 0.00 0.00 36 1010.3
20260508165511 18 198 3.2 0.0 0.00 0.00 0.00 34 1010.5
20260508165011 19 209 0.0 0.0 0.00 0.00 0.00 37 1010.5
20260508164511 19 189 11.3 0.0 0.00 0.00 0.00 39 1010.5
20260508164011 19 280 0.0 0.0 0.00 0.00 0.00 41 1010.8
20260508163511 19 181 3.2 0.0 0.00 0.00 0.00 37 1010.8
20260508163013 18 150 0.0 0.0 0.00 0.00 0.00 41 1010.8
20260508162011 18 345 3.2 0.0 0.00 0.00 0.00 39 1011.2
20260508161511 18 203 8.0 0.0 0.00 0.00 0.00 38 1011.2
20260508160511 18 236 0.0 0.0 0.00 0.00 0.00 39 1011.3
20260508155511 17 199 3.2 0.0 0.00 0.00 0.00 38 1011.3
20260508155011 17 177 3.2 0.0 0.00 0.00 0.00 37 1011.3
20260508154511 18 207 0.0 0.0 0.00 0.00 0.00 42 1011.3
20260508154011 17 159 0.0 0.0 0.00 0.00 0.00 42 1011.3
20260508153511 17 272 0.0 0.0 0.00 0.00 0.00 41 1011.3
20260508153011 17 272 0.0 0.0 0.00 0.00 0.00 44 1011.3
20260508152511 17 193 0.0 0.0 0.00 0.00 0.00 44 1011.4
20260508152011 17 203 4.8 0.0 0.00 0.00 0.00 48 1011.4
20260508151511 17 334 0.0 0.0 0.00 0.00 0.00 47 1011.4
20260508151010 16 181 0.0 0.0 0.00 0.00 0.00 46 1011.5
20260508150512 17 173 0.0 0.0 0.00 0.00 0.00 49 1011.5
20260508150011 16 207 0.0 0.0 0.00 0.00 0.00 51 1011.5
20260508145011 16 260 0.0 0.0 0.00 0.00 0.00 48 1011.6
20260508144511 15 261 0.0 0.0 0.00 0.00 0.00 49 1011.6
20260508144011 15 193 0.0 0.0 0.00 0.00 0.00 51 1010.6
20260508143511 15 186 0.0 0.0 0.00 0.00 0.00 51 1010.6
20260508143012 15 302 0.0 0.0 0.00 0.00 0.00 54 1010.6
20260508142512 15 206 0.0 0.0 0.00 0.00 0.00 52 1010.8
20260508142011 15 224 0.0 0.0 0.00 0.00 0.00 57 1010.8
20260508141511 14 224 4.8 0.0 0.00 0.00 0.00 52 1010.8
20260508141010 14 212 0.0 0.0 0.00 0.00 0.00 51 1010.8
20260508140510 14 195 0.0 0.0 0.00 0.00 0.00 55 1010.8
20260508135510 13 118 0.0 0.0 0.00 0.00 0.00 56 1010.9
20260508135011 13 196 0.0 0.0 0.00 0.00 0.00 63 1010.9
20260508134511 12 8 0.0 0.0 0.00 0.00 0.00 64 1010.9
20260508134012 12 10 0.0 0.0 0.00 0.00 0.00 70 1011.0
20260508133511 11 9 0.0 0.0 0.00 0.00 0.00 71 1011.0
20260508133011 11 8 0.0 0.0 0.00 0.00 0.00 72 1011.0
20260508132511 10 8 0.0 0.0 0.00 0.00 0.00 73 1011.0
20260508132011 10 309 0.0 0.0 0.00 0.00 0.00 77 1011.0
20260508131511 10 309 0.0 0.0 0.00 0.00 0.00 76 1011.0
20260508131013 10 310 0.0 0.0 0.00 0.00 0.00 77 1011.1
20260508130511 9 309 0.0 0.0 0.00 0.00 0.00 78 1011.1
20260508125011 8 309 0.0 0.0 0.00 0.00 0.00 84 1011.1
20260508124511 7 309 0.0 0.0 0.00 0.00 0.00 86 1011.1
20260508123511 7 309 0.0 0.0 0.00 0.00 0.00 89 1011.3
20260508123011 7 309 0.0 0.0 0.00 0.00 0.00 91 1011.3
20260508122512 6 309 0.0 0.0 0.00 0.00 0.00 94 1011.2
20260508122011 6 309 0.0 0.0 0.00 0.00 0.00 95 1011.2
20260508121511 6 309 0.0 0.0 0.00 0.00 0.00 97 1011.2
20260508121011 6 309 0.0 0.0 0.00 0.00 0.00 98 1011.1
20260508120013 5 310 0.0 0.0 0.00 0.00 0.00 99 1011.1
20260508115511 5 309 0.0 0.0 0.00 0.00 0.00 100 1011.1
20260508115011 4 309 0.0 0.0 0.00 0.00 0.00 100 1011.1
20260508114011 3 309 0.0 0.0 0.00 0.00 0.00 100 1011.0
20260508113511 3 309 0.0 0.0 0.00 0.00 0.00 100 1011.0
20260508112511 3 309 0.0 0.0 0.00 0.00 0.00 100 1011.0
20260508112011 3 309 0.0 0.0 0.00 0.00 0.00 100 1011.0
20260508111511 2 310 0.0 0.0 0.00 0.00 0.00 100 1011.0
20260508111011 2 309 0.0 0.0 0.00 0.00 0.00 100 1010.8
20260508110511 2 309 0.0 0.0 0.00 0.00 0.00 99 1010.8
20260508110011 2 309 0.0 0.0 0.00 0.00 0.00 99 1010.8
20260508105512 2 309 0.0 0.0 0.00 0.00 0.00 99 1010.7
20260508105011 2 309 0.0 0.0 0.00 0.00 0.00 99 1010.7
20260508104511 2 309 0.0 0.0 0.00 0.00 0.00 99 1010.7
20260508104011 2 309 0.0 0.0 0.00 0.00 0.00 98 1010.6
20260508103011 2 309 0.0 0.0 0.00 0.00 0.00 98 1010.6
20260508102510 2 309 0.0 0.0 0.00 0.00 0.00 98 1010.5
20260508102011 2 309 0.0 0.0 0.00 0.00 0.00 98 1010.5
20260508101012 2 309 0.0 0.0 0.00 0.00 0.00 98 1010.4
20260508100511 2 310 0.0 0.0 0.00 0.00 0.00 98 1010.4
20260508100012 2 310 0.0 0.0 0.00 0.00 0.00 98 1010.4
20260508095011 2 309 0.0 0.0 0.00 0.00 0.00 98 1010.3
20260508094511 2 310 0.0 0.0 0.00 0.00 0.00 98 1010.3
20260508094011 2 309 0.0 0.0 0.00 0.00 0.00 98 1010.2
20260508093511 2 309 0.0 0.0 0.00 0.00 0.00 98 1010.2
20260508093011 2 309 0.0 0.0 0.00 0.00 0.00 98 1010.2
20260508092511 2 309 0.0 0.0 0.00 0.00 0.00 97 1010.1
20260508092010 3 309 0.0 0.0 0.00 0.00 0.00 97 1010.1
20260508091511 3 309 0.0 0.0 0.00 0.00 0.00 98 1010.1
20260508091011 3 309 0.0 0.0 0.00 0.00 0.00 97 1009.9
20260508090510 3 309 0.0 0.0 0.00 0.00 0.00 97 1009.9
20260508090010 3 309 0.0 0.0 0.00 0.00 0.00 97 1009.9
20260508085510 3 309 0.0 0.0 0.00 0.00 0.00 97 1009.9
20260508084511 3 309 0.0 0.0 0.00 0.00 0.00 97 1009.9
20260508084010 3 309 0.0 0.0 0.00 0.00 0.00 97 1009.9
20260508083510 3 309 0.0 0.0 0.00 0.00 0.00 97 1009.9
20260508083011 3 310 0.0 0.0 0.00 0.00 0.00 97 1009.9
20260508082511 3 309 0.0 0.0 0.00 0.00 0.00 97 1009.9
20260508082010 3 310 0.0 0.0 0.00 0.00 0.00 97 1009.9
20260508081510 3 309 0.0 0.0 0.00 0.00 0.00 97 1009.9
20260508081010 3 309 0.0 0.0 0.00 0.00 0.00 96 1010.0
20260508080510 3 309 0.0 0.0 0.00 0.00 0.00 96 1010.0
20260508075510 3 310 0.0 0.0 0.00 0.00 0.00 96 1009.9
20260508075010 3 309 0.0 0.0 0.00 0.00 0.00 96 1009.9
20260508074010 3 309 0.0 0.0 0.00 0.00 0.00 96 1009.9
20260508073510 3 309 0.0 0.0 0.00 0.00 0.00 96 1009.9
20260508073011 3 309 0.0 0.0 0.00 0.00 0.00 95 1009.9
20260508072510 3 309 0.0 0.0 0.00 0.00 0.00 95 1009.9
20260508072010 3 309 0.0 0.0 0.00 0.00 0.00 95 1009.9
20260508071510 3 309 0.0 0.0 0.00 0.00 0.00 95 1009.9
20260508071010 3 308 0.0 0.0 0.00 0.00 0.00 95 1009.8
20260508070510 3 309 0.0 0.0 0.00 0.00 0.00 95 1009.8
20260508070010 3 309 0.0 0.0 0.00 0.00 0.00 95 1009.8
20260508065510 4 309 0.0 0.0 0.00 0.00 0.00 95 1009.8
20260508065010 4 309 0.0 0.0 0.00 0.00 0.00 95 1009.8
20260508064512 4 309 0.0 0.0 0.00 0.00 0.00 95 1009.8
20260508064010 4 309 0.0 0.0 0.00 0.00 0.00 95 1009.9
20260508063510 4 309 0.0 0.0 0.00 0.00 0.00 94 1009.9
20260508063010 4 309 0.0 0.0 0.00 0.00 0.00 94 1009.9
20260508062511 4 309 0.0 0.0 0.00 0.00 0.00 94 1010.0
20260508062011 4 309 0.0 0.0 0.00 0.00 0.00 94 1010.0
20260508061511 4 309 0.0 0.0 0.00 0.00 0.00 93 1010.0
20260508061011 4 309 0.0 0.0 0.00 0.00 0.00 93 1010.0
20260508060511 4 309 0.0 0.0 0.00 0.00 0.00 93 1010.0
20260508060011 5 309 0.0 0.0 0.00 0.00 0.00 93 1010.0
20260508055511 5 309 0.0 0.0 0.00 0.00 0.00 93 1009.9
20260508055011 5 309 0.0 0.0 0.00 0.00 0.00 92 1009.9
20260508054513 5 309 0.0 0.0 0.00 0.00 0.00 92 1009.9
20260508054011 5 309 0.0 0.0 0.00 0.00 0.00 92 1009.9
20260508053511 5 309 0.0 0.0 0.00 0.00 0.00 92 1009.9
20260508053011 5 309 0.0 0.0 0.00 0.00 0.00 92 1009.9
20260508052511 5 309 0.0 0.0 0.00 0.00 0.00 91 1009.9
20260508052011 5 309 0.0 0.0 0.00 0.00 0.00 91 1009.9
20260508051511 5 309 0.0 0.0 0.00 0.00 0.00 91 1009.9
20260508051011 5 309 0.0 0.0 0.00 0.00 0.00 91 1009.9
20260508050011 5 309 0.0 0.0 0.00 0.00 0.00 90 1009.9
20260508045511 5 309 0.0 0.0 0.00 0.00 0.00 90 1009.9
20260508044511 6 309 0.0 0.0 0.00 0.00 0.00 89 1009.9
20260508044011 6 309 0.0 0.0 0.00 0.00 0.00 89 1009.9
20260508043511 6 309 0.0 0.0 0.00 0.00 0.00 88 1009.9
20260508043011 6 309 0.0 0.0 0.00 0.00 0.00 88 1009.9
20260508042511 6 309 0.0 0.0 0.00 0.00 0.00 87 1009.8
20260508042011 6 309 0.0 0.0 0.00 0.00 0.00 87 1009.8
20260508041511 6 309 0.0 0.0 0.00 0.00 0.00 87 1009.8
20260508041011 6 309 0.0 0.0 0.00 0.00 0.00 87 1009.9
20260508040511 6 309 0.0 0.0 0.00 0.00 0.00 86 1009.9
20260508040011 6 309 0.0 0.0 0.00 0.00 0.00 86 1009.9
20260508035511 6 309 0.0 0.0 0.00 0.00 0.00 85 1009.8
20260508035011 6 305 0.0 0.0 0.00 0.00 0.00 85 1009.8
20260508034011 7 305 0.0 0.0 0.00 0.00 0.00 83 1009.9
20260508033511 7 305 0.0 0.0 0.00 0.00 0.00 82 1009.9
20260508032511 7 305 0.0 0.0 0.00 0.00 0.00 81 1009.6
20260508031011 7 305 0.0 0.0 0.00 0.00 0.00 80 1009.5
20260508030511 7 305 0.0 0.0 0.00 0.00 0.00 79 1009.5
20260508025511 8 304 0.0 0.0 0.00 0.00 0.00 77 1009.3
20260508025012 8 304 0.0 0.0 0.00 0.00 0.00 75 1009.3
20260508024511 8 305 0.0 0.0 0.00 0.00 0.00 75 1009.3
20260508024011 8 305 0.0 0.0 0.00 0.00 0.00 73 1009.1
20260508023511 8 305 0.0 0.0 0.00 0.00 0.00 72 1009.1
20260508023011 8 304 0.0 0.0 0.00 0.00 0.00 70 1009.1
20260508022011 9 304 0.0 0.0 0.00 0.00 0.00 68 1008.8
20260508021512 9 305 0.0 0.0 0.00 0.00 0.00 67 1008.8
20260508020510 9 305 0.0 0.0 0.00 0.00 0.00 66 1008.6
20260508020011 10 305 0.0 0.0 0.00 0.00 0.00 64 1008.6
20260508015510 10 305 0.0 0.0 0.00 0.00 0.00 63 1008.3
20260508015011 10 305 0.0 0.0 0.00 0.00 0.00 61 1008.3
20260508014512 10 305 0.0 0.0 0.00 0.00 0.00 61 1008.3
20260508014011 10 305 0.0 0.0 0.00 0.00 0.00 60 1008.2
20260508013511 10 305 0.0 0.0 0.00 0.00 0.00 61 1008.2
20260508013012 10 305 0.0 0.0 0.00 0.00 0.00 60 1008.2
20260508012512 10 304 0.0 0.0 0.00 0.00 0.00 58 1007.9
20260508012010 11 305 0.0 0.0 0.00 0.00 0.00 60 1007.9
20260508011510 11 305 0.0 0.0 0.00 0.00 0.00 58 1007.9
20260508011011 11 305 0.0 0.0 0.00 0.00 0.00 56 1007.8
20260508010511 12 305 0.0 0.0 0.00 0.00 0.00 53 1007.8
20260508010011 12 305 0.0 0.0 0.00 0.00 0.00 51 1007.8